{"data":{"norad_id":61190,"epoch":"2026-09-22T21:28:59.017728Z","epoch_age_seconds":87642,"freshness":"FRESH","line1":"1 61190U 24169B   26265.89512752  .00002058  00000+0  13261-3 0  9999","line2":"2 61190  97.5539 353.3156 0007409  50.6865 309.5019 15.09411552110566","mean_motion":15.09411552,"eccentricity":0.0007409,"inclination_deg":97.5539,"raan_deg":353.3156,"arg_perigee_deg":50.6865,"mean_anomaly_deg":309.5019,"bstar":0.00013261,"rev_number":11056,"period_min":95.401416405749,"perigee_km":532.87277081012,"apogee_km":543.12109807418,"semimajor_km":6916.1339344421,"source":"CELESTRAK","updated_at":"2026-09-23T09:00:20.812314Z"}}